CW3643 Weather Reports


time (UTC)temp
C
wind
direction
speed
KPH
gust
KPH
rain 1hr
cm
rain 24hr
cm
rain mn
cm
humidity
%
barometer
mb
20190421061026 13 88 9.7 14.5 0.00 0.00 0.00 73 1015.3
20190421060017 13 30 6.4 16.1 0.00 0.00 0.00 72 1015.1
20190421055042 14 92 6.4 17.7 0.00 0.00 0.00 71 1015.2
20190421054018 13 63 6.4 11.3 0.00 0.00 0.00 71 1015.1
20190421053018 14 29 4.8 11.3 0.00 0.00 0.00 71 1015.1
20190421052030 14 105 3.2 9.7 0.00 0.00 0.00 70 1015.2
20190421051019 14 344 4.8 9.7 0.00 0.00 0.00 70 1015.2
20190421050023 14 53 3.2 6.4 0.00 0.00 0.00 70 1015.3
20190421045029 14 260 4.8 11.3 0.00 0.00 0.00 69 1015.3
20190421043021 14 82 8.0 17.7 0.00 0.00 0.00 69 1015.2
20190421042027 14 99 8.0 14.5 0.00 0.00 0.00 69 1015.2
20190421041018 14 107 9.7 20.9 0.00 0.00 0.00 70 1015.5
20190421040017 14 9 6.4 14.5 0.00 0.00 0.00 72 1015.6
20190421035026 14 45 4.8 11.3 0.00 0.00 0.00 74 1015.5
20190421033023 15 115 1.6 8.0 0.00 0.00 0.00 75 1015.7
20190421031016 15 58 3.2 11.3 0.00 0.00 0.00 75 1015.8
20190421030015 15 57 3.2 8.0 0.00 0.00 0.00 74 1015.8
20190421025015 15 135 3.2 9.7 0.00 0.00 0.00 74 1015.9
20190421024026 15 150 3.2 9.7 0.00 0.00 0.00 74 1015.9
20190421023014 15 70 4.8 11.3 0.00 0.00 0.00 74 1015.9
20190421022024 15 50 6.4 11.3 0.00 0.00 0.00 74 1015.9
20190421021021 15 61 4.8 9.7 0.00 0.00 0.00 75 1016.0
20190421020043 15 19 3.2 9.7 0.00 0.00 0.00 74 1016.0
20190421015015 16 359 3.2 9.7 0.00 0.00 0.00 73 1016.0
20190421014030 16 72 4.8 11.3 0.00 0.00 0.00 72 1016.2
20190421013024 16 93 4.8 9.7 0.00 0.00 0.00 72 1016.3
20190421012028 16 95 6.4 11.3 0.00 0.00 0.00 71 1016.5
20190421011025 16 105 6.4 11.3 0.00 0.00 0.00 72 1016.6
20190421010023 16 84 6.4 12.9 0.00 0.00 0.00 71 1016.7
20190421005022 16 82 6.4 11.3 0.00 0.00 0.00 70 1016.8
20190421004025 17 143 4.8 9.7 0.00 0.00 0.00 68 1016.8
20190421003019 17 136 4.8 8.0 0.00 0.00 0.00 67 1016.8
20190421002029 17 174 4.8 11.3 0.00 0.00 0.00 68 1016.8
20190421001021 17 147 6.4 9.7 0.00 0.00 0.00 68 1016.9
20190420235021 18 161 8.0 11.3 0.00 0.00 0.00 65 1017.1
20190420234019 18 136 3.2 14.5 0.00 0.00 0.00 64 1017.1
20190420233028 18 174 9.7 14.5 0.00 0.00 0.00 63 1017.0
20190420232013 18 147 8.0 9.7 0.00 0.00 0.00 61 1016.9
20190420231058 18 150 4.8 8.0 0.00 0.00 0.00 63 1017.0
20190420230018 18 162 4.8 9.7 0.00 0.00 0.00 63 1017.1
20190420225041 18 170 8.0 12.9 0.00 0.00 0.00 62 1017.1
20190420224020 18 176 4.8 14.5 0.00 0.00 0.00 60 1017.1
20190420223109 18 114 11.3 14.5 0.00 0.00 0.00 58 1017.1
20190420222019 18 141 4.8 16.1 0.00 0.00 0.00 56 1016.7
20190420221015 19 276 6.4 19.3 0.00 0.00 0.00 50 1016.5
20190420220011 18 329 14.5 22.5 0.00 0.00 0.00 51 1016.5
20190420215017 18 336 12.9 20.9 0.00 0.00 0.00 52 1016.5
20190420214021 19 318 12.9 24.1 0.00 0.00 0.00 51 1016.5
20190420213019 18 326 14.5 24.1 0.00 0.00 0.00 52 1016.5
20190420212027 19 338 16.1 25.7 0.00 0.00 0.00 53 1016.5
20190420211113 19 354 16.1 22.5 0.00 0.00 0.00 53 1016.5
20190420205023 19 341 16.1 22.5 0.00 0.00 0.00 56 1016.5
20190420204013 19 334 16.1 22.5 0.00 0.00 0.00 57 1016.5
20190420203014 19 331 14.5 24.1 0.00 0.00 0.00 57 1016.5
20190420202021 20 343 17.7 27.4 0.00 0.00 0.00 56 1016.4
20190420201022 20 353 14.5 24.1 0.00 0.00 0.00 57 1016.4
20190420200017 20 328 16.1 25.7 0.00 0.00 0.00 58 1016.3
20190420195025 20 334 14.5 24.1 0.00 0.00 0.00 57 1016.2
20190420194029 20 331 16.1 22.5 0.00 0.00 0.00 57 1016.2
20190420193029 20 353 12.9 17.7 0.00 0.00 0.00 55 1016.1
20190420192026 21 313 9.7 17.7 0.00 0.00 0.00 55 1016.0
20190420191020 21 328 11.3 20.9 0.00 0.00 0.00 54 1016.0
20190420185030 21 334 16.1 24.1 0.00 0.00 0.00 53 1016.0
20190420184030 22 338 14.5 20.9 0.00 0.00 0.00 54 1016.0
20190420183028 22 327 9.7 20.9 0.00 0.00 0.00 53 1015.9
20190420182021 22 344 12.9 20.9 0.00 0.00 0.00 52 1015.9
20190420181013 22 307 14.5 29.0 0.00 0.00 0.00 53 1015.9
20190420180022 22 332 11.3 19.3 0.00 0.00 0.00 52 1015.9
20190420175030 22 357 12.9 25.7 0.00 0.00 0.00 52 1015.9
20190420174019 23 360 9.7 20.9 0.00 0.00 0.00 51 1016.1
20190420172026 23 69 11.3 19.3 0.00 0.00 0.00 51 1016.2
20190420171030 23 42 9.7 17.7 0.00 0.00 0.00 51 1016.2
20190420170012 23 350 8.0 19.3 0.00 0.00 0.00 51 1016.3
20190420165056 23 18 9.7 14.5 0.00 0.00 0.00 46 1016.2
20190420164028 24 44 8.0 20.9 0.00 0.00 0.00 45 1016.2
20190420163011 24 63 12.9 24.1 0.00 0.00 0.00 43 1016.3
20190420162029 24 36 6.4 14.5 0.00 0.00 0.00 44 1016.3
20190420160028 24 111 8.0 27.4 0.00 0.00 0.00 42 1016.3
20190420155018 24 51 6.4 16.1 0.00 0.00 0.00 44 1016.3
20190420154028 24 23 4.8 12.9 0.00 0.00 0.00 45 1016.6
20190420153022 24 125 8.0 17.7 0.00 0.00 0.00 44 1016.7
20190420152014 23 260 9.7 20.9 0.00 0.00 0.00 45 1016.7
20190420151029 23 61 9.7 22.5 0.00 0.00 0.00 46 1016.8
20190420150019 23 107 11.3 25.7 0.00 0.00 0.00 46 1016.9
20190420145014 23 40 9.7 30.6 0.00 0.79 0.00 46 1017.1
20190420144022 22 69 14.5 25.7 0.00 0.79 0.00 46 1017.4
20190420143012 22 58 11.3 29.0 0.00 0.79 0.00 46 1017.4
20190420142025 22 28 12.9 24.1 0.00 0.79 0.00 47 1017.4
20190420141017 22 16 4.8 22.5 0.00 0.79 0.00 49 1017.5
20190420140019 22 30 12.9 30.6 0.00 0.79 0.00 49 1017.5
20190420135017 22 53 9.7 22.5 0.00 1.80 0.00 49 1017.5
20190420134013 22 66 12.9 25.7 0.00 1.80 0.00 50 1017.6
20190420133028 22 108 9.7 24.1 0.00 1.80 0.00 50 1017.8
20190420132020 22 105 8.0 17.7 0.00 1.80 0.00 51 1018.0
20190420131012 22 276 6.4 25.7 0.00 1.80 0.00 51 1017.9
20190420130012 21 60 8.0 22.5 0.00 1.80 0.00 51 1017.9
20190420125015 21 59 6.4 22.5 0.00 1.91 0.00 53 1018.0
20190420124056 21 78 11.3 22.5 0.00 1.91 0.00 55 1018.2
20190420123029 21 207 12.9 25.7 0.00 1.91 0.00 56 1018.3
20190420121012 20 59 14.5 29.0 0.00 1.91 0.00 54 1018.6
20190420120015 20 97 8.0 24.1 0.00 1.91 0.00 58 1018.6
20190420115024 20 48 8.0 19.3 0.00 1.91 0.00 60 1018.5
20190420114022 20 40 8.0 22.5 0.00 1.91 0.00 61 1018.7
20190420113016 19 275 8.0 24.1 0.00 1.91 0.00 61 1018.7
20190420112021 19 55 6.4 20.9 0.00 1.91 0.00 64 1018.9
20190420111015 19 57 6.4 25.7 0.00 1.91 0.00 65 1019.0
20190420110027 18 114 8.0 25.7 0.00 1.91 0.00 66 1019.0
20190420105103 18 37 16.1 29.0 0.00 1.91 0.00 68 1019.0
20190420104016 17 85 12.9 24.1 0.00 1.91 0.00 73 1019.2
20190420103031 17 91 9.7 19.3 0.00 1.91 0.00 74 1019.2
20190420102015 17 82 9.7 19.3 0.00 1.91 0.00 74 1019.5
20190420101018 16 45 11.3 27.4 0.00 1.91 0.00 74 1019.5
20190420100028 16 51 11.3 20.9 0.00 1.91 0.00 76 1019.6
20190420095011 16 60 9.7 17.7 0.00 1.91 0.00 78 1019.8
20190420094022 15 47 11.3 19.3 0.00 1.91 0.00 78 1020.0
20190420093027 15 41 8.0 17.7 0.00 1.91 0.00 79 1019.8
20190420091026 15 111 11.3 25.7 0.00 1.91 0.00 80 1019.9
20190420090027 14 13 11.3 27.4 0.00 1.91 0.00 79 1019.8
20190420085018 14 84 12.9 24.1 0.00 1.91 0.00 78 1019.8
20190420084021 14 64 11.3 24.1 0.00 1.91 0.00 78 1019.8
20190420083026 14 40 11.3 22.5 0.00 1.91 0.00 78 1019.5
20190420082019 13 43 14.5 29.0 0.00 1.91 0.00 78 1019.5
20190420081031 13 90 8.0 17.7 0.00 1.91 0.00 79 1019.4
20190420080030 13 32 9.7 25.7 0.00 1.91 0.00 79 1019.3
20190420074014 13 26 9.7 19.3 0.00 1.91 0.00 80 1019.6
20190420073029 13 35 8.0 20.9 0.00 1.91 0.00 81 1019.7
20190420072023 13 62 12.9 24.1 0.00 1.91 0.00 82 1019.6
20190420070030 13 66 9.7 22.5 0.00 1.91 0.00 85 1019.7
20190420064023 12 19 8.0 22.5 0.00 1.91 0.00 86 1019.3
20190420063014 12 53 6.4 20.9 0.00 1.91 0.00 86 1019.3
20190420062026 13 6 8.0 16.1 0.00 1.91 0.00 85 1019.4